This demonstration page uses our WeatherBlox Daily Observations layout. Learn more.

36.17497, -115.13722

Hourly Observations for October 29, 2018

Temp ( °F °C ) Dew Point ( °F °C ) Humidity (%) Winds ( mph kmh ) Pressure ( in mb ) Visibility ( mi km ) Precip ( " mm )
12:53 am 00:53 Clear 65 18.3 34 1.1 32 32 N 3 6 29.94 1014 10 16.09344 0 0
1:53 am 01:53 Clear 63 17.2 35 1.7 35 35 Calm 29.94 1014 10 16.09344 0 0
2:53 am 02:53 Clear 60 15.6 34 1.1 38 38 NNW 3 6 29.94 1014 10 16.09344 0 0
3:53 am 03:53 Clear 61 16.1 34 1.1 36 36 Calm 29.94 1014 10 16.09344 0 0
4:53 am 04:53 Clear 63 17.2 33 0.6 33 33 Calm 29.94 1014 10 16.09344 0 0
5:53 am 05:53 Clear 63 17.2 33 0.6 33 33 N 3 6 29.94 1014 10 16.09344 0 0
6:53 am 06:53 Clear 60 15.6 33 0.6 36 36 NNW 8 13 29.97 1015 10 16.09344 0 0
7:53 am 07:53 Sunny 62 16.7 31 -0.6 31 31 NNW 8 13 29.97 1015 10 16.09344 0 0
8:53 am 08:53 Sunny 67 19.4 33 0.6 28 28 N 5 7 29.97 1015 10 16.09344 0 0
9:53 am 09:53 Sunny 72 22.2 32 0 23 23 NNE 3 6 29.97 1015 10 16.09344 0 0
10:53 am 10:53 Sunny 75 23.9 31 -0.6 20 20 ENE 5 7 29.97 1015 10 16.09344 0 0
11:53 am 11:53 Sunny 77 25 31 -0.6 18 18 NE 5 7 29.94 1014 10 16.09344 0 0
12:53 pm 12:53 Sunny 79 26.1 31 -0.6 17 17 NNW 5 7 29.91 1013 10 16.09344 0 0
1:53 pm 13:53 Sunny 81 27.2 30 -1.1 16 16 Calm 29.88 1012 10 16.09344 0 0
2:53 pm 14:53 Sunny 83 28.3 30 -1.1 15 15 N 5 7 29.85 1011 10 16.09344 0 0
3:53 pm 15:53 Sunny 84 28.9 29 -1.7 13 13 ENE 5 7 29.83 1010 10 16.09344 0 0
4:53 pm 16:53 Sunny 84 28.9 28 -2.2 13 13 ENE 3 6 29.83 1010 10 16.09344 0 0
5:53 pm 17:53 Clear 80 26.7 35 1.7 20 20 ENE 6 9 29.83 1010 10 16.09344 0 0
6:53 pm 18:53 Clear 76 24.4 36 2.2 23 23 NNW 7 11 29.85 1011 10 16.09344 0 0
7:53 pm 19:53 Clear 73 22.8 37 2.8 27 27 NW 3 6 29.85 1011 10 16.09344 0 0
8:53 pm 20:53 Clear 72 22.2 38 3.3 29 29 NNW 6 9 29.85 1011 10 16.09344 0 0
9:53 pm 21:53 Clear 70 21.1 37 2.8 30 30 NNW 3 6 29.85 1011 10 16.09344 0 0
10:53 pm 22:53 Clear 69 20.6 29 -1.7 22 22 NNE 6 9 29.85 1011 10 16.09344 0 0
11:53 pm 23:53 Clear 68 20 33 0.6 27 27 NW 5 7 29.83 1010 10 16.09344 0 0

Powered by AerisWeather